| time (UTC) | temp F | wind direction | speed knots | gust knots | rain 1hr in | rain 24hr in | rain mn in | humidity % | barometer mb |
| 20260509134521 | 54 | 110 | 1.7 | 9.6 | 0.00 | 0.26 | 0.00 | 58 | 992.1 |
| 20260509133020 | 54 | 70 | 0.0 | 7.8 | 0.00 | 0.26 | 0.00 | 57 | 992.0 |
| 20260509131530 | 54 | 203 | 0.0 | 10.4 | 0.00 | 0.26 | 0.00 | 57 | 991.9 |
| 20260509130026 | 54 | 64 | 0.0 | 10.4 | 0.00 | 0.39 | 0.00 | 57 | 991.8 |
| 20260509124522 | 54 | 90 | 3.5 | 13.0 | 0.00 | 0.39 | 0.00 | 56 | 991.8 |
| 20260509123016 | 54 | 103 | 1.7 | 11.3 | 0.00 | 0.39 | 0.00 | 56 | 991.8 |
| 20260509121512 | 54 | 82 | 6.1 | 15.6 | 0.00 | 0.39 | 0.00 | 55 | 991.6 |
| 20260509120007 | 54 | 290 | 1.7 | 13.9 | 0.00 | 0.40 | 0.39 | 55 | 991.6 |
| 20260509114506 | 54 | 89 | 3.5 | 12.2 | 0.00 | 0.40 | 0.39 | 55 | 991.8 |
| 20260509113005 | 55 | 217 | 2.6 | 9.6 | 0.00 | 0.40 | 0.39 | 55 | 992.1 |
| 20260509111505 | 55 | 300 | 5.2 | 13.9 | 0.00 | 0.40 | 0.39 | 55 | 992.3 |
| 20260509110004 | 55 | 155 | 5.2 | 18.2 | 0.00 | 0.42 | 0.39 | 54 | 992.6 |
| 20260509104504 | 55 | 120 | 6.1 | 19.1 | 0.00 | 0.42 | 0.39 | 54 | 992.4 |
| 20260509103002 | 54 | 141 | 4.3 | 13.9 | 0.00 | 0.42 | 0.39 | 56 | 992.7 |
| 20260509101502 | 54 | 210 | 6.1 | 15.6 | 0.00 | 0.42 | 0.39 | 57 | 992.8 |
| 20260509100003 | 54 | 127 | 5.2 | 15.6 | 0.00 | 0.42 | 0.39 | 58 | 992.7 |
| 20260509094501 | 54 | 140 | 6.1 | 13.0 | 0.00 | 0.42 | 0.39 | 59 | 993.1 |
| 20260509093101 | 54 | 144 | 1.7 | 7.8 | 0.00 | 0.42 | 0.39 | 59 | 993.3 |
| 20260509091605 | 54 | 105 | 4.3 | 13.9 | 0.00 | 0.42 | 0.39 | 59 | 993.6 |
| 20260509090109 | 53 | 201 | 5.2 | 10.4 | 0.00 | 0.42 | 0.39 | 58 | 993.5 |
| 20260509084603 | 53 | 118 | 3.5 | 8.7 | 0.00 | 0.42 | 0.39 | 59 | 993.4 |
| 20260509083201 | 53 | 67 | 5.2 | 13.9 | 0.00 | 0.42 | 0.39 | 59 | 993.4 |
| 20260509081557 | 53 | 146 | 3.5 | 11.3 | 0.00 | 0.42 | 0.39 | 60 | 993.0 |
| 20260509074556 | 53 | 131 | 2.6 | 12.2 | 0.00 | 0.43 | 0.39 | 60 | 993.0 |
| 20260509073056 | 54 | 153 | 7.0 | 13.9 | 0.00 | 0.43 | 0.39 | 59 | 992.7 |
| 20260509071556 | 54 | 200 | 8.7 | 17.4 | 0.00 | 0.43 | 0.39 | 59 | 992.6 |
| 20260509070054 | 54 | 40 | 3.5 | 12.2 | 0.00 | 0.46 | 0.39 | 60 | 992.4 |
| 20260509064554 | 54 | 50 | 3.5 | 14.8 | 0.00 | 0.46 | 0.39 | 60 | 992.3 |
| 20260509063102 | 54 | 146 | 3.5 | 8.7 | 0.00 | 0.46 | 0.39 | 60 | 992.4 |
| 20260509061552 | 54 | 117 | 1.7 | 13.9 | 0.00 | 0.46 | 0.39 | 60 | 992.4 |
| 20260509060059 | 54 | 165 | 4.3 | 13.0 | 0.00 | 0.46 | 0.39 | 60 | 992.1 |
| 20260509054554 | 54 | 139 | 2.6 | 10.4 | 0.00 | 0.46 | 0.39 | 62 | 991.9 |
| 20260509053117 | 53 | 8 | 0.9 | 4.3 | 0.00 | 0.46 | 0.39 | 67 | 991.6 |
| 20260509051549 | 54 | 259 | 0.0 | 7.8 | 0.00 | 0.46 | 0.39 | 68 | 991.6 |
| 20260509050048 | 54 | 136 | 0.0 | 4.3 | 0.00 | 0.49 | 0.39 | 72 | 991.6 |
| 20260509044547 | 54 | 162 | 0.0 | 2.6 | 0.00 | 0.49 | 0.39 | 74 | 991.4 |
| 20260509043102 | 58 | 27 | 0.0 | 5.2 | 0.00 | 0.49 | 0.39 | 67 | 991.4 |
| 20260509041557 | 59 | 266 | 0.0 | 2.6 | 0.00 | 0.49 | 0.39 | 61 | 991.4 |
| 20260509040055 | 59 | 262 | 0.0 | 4.3 | 0.00 | 0.49 | 0.39 | 59 | 991.4 |
| 20260509034600 | 58 | 39 | 0.0 | 3.5 | 0.00 | 0.49 | 0.39 | 58 | 991.5 |
| 20260509033044 | 58 | 76 | 0.0 | 4.3 | 0.00 | 0.49 | 0.39 | 57 | 991.6 |
| 20260509031543 | 59 | 158 | 1.7 | 7.8 | 0.00 | 0.49 | 0.39 | 55 | 991.7 |
| 20260509030041 | 59 | 175 | 3.5 | 7.8 | 0.00 | 0.49 | 0.39 | 57 | 991.4 |
| 20260509024539 | 59 | 97 | 0.9 | 2.6 | 0.00 | 0.49 | 0.39 | 64 | 991.4 |
| 20260509023038 | 58 | 62 | 0.9 | 4.3 | 0.00 | 0.49 | 0.39 | 65 | 991.4 |
| 20260509021536 | 57 | 350 | 0.0 | 2.6 | 0.00 | 0.49 | 0.39 | 68 | 991.5 |
| 20260509020040 | 57 | 84 | 2.6 | 7.0 | 0.00 | 0.49 | 0.39 | 66 | 991.6 |
| 20260509014534 | 58 | 69 | 0.9 | 8.7 | 0.00 | 0.49 | 0.39 | 65 | 991.7 |
| 20260509013041 | 57 | 329 | 0.9 | 2.6 | 0.00 | 0.49 | 0.39 | 67 | 991.7 |
| 20260509011531 | 57 | 65 | 1.7 | 5.2 | 0.00 | 0.49 | 0.39 | 67 | 992.1 |
| 20260509010042 | 57 | 37 | 0.9 | 5.2 | 0.00 | 0.49 | 0.39 | 68 | 992.1 |
| 20260509004528 | 57 | 66 | 3.5 | 7.8 | 0.00 | 0.49 | 0.39 | 70 | 992.1 |
| 20260509003024 | 56 | 86 | 1.7 | 6.1 | 0.00 | 0.49 | 0.39 | 69 | 992.3 |
| 20260509001518 | 56 | 61 | 1.7 | 8.7 | 0.00 | 0.49 | 0.39 | 70 | 992.8 |
| 20260509000015 | 55 | 137 | 2.6 | 8.7 | 0.00 | 0.49 | 0.39 | 72 | 993.1 |
| 20260508234521 | 53 | 310 | 0.0 | 2.6 | 0.00 | 0.49 | 0.39 | 79 | 993.0 |
| 20260508233013 | 52 | 257 | 0.0 | 2.6 | 0.00 | 0.49 | 0.39 | 87 | 993.2 |
| 20260508231505 | 50 | 307 | 0.0 | 0.9 | 0.00 | 0.49 | 0.39 | 88 | 993.0 |
| 20260508230004 | 50 | 277 | 0.0 | 2.6 | 0.00 | 0.49 | 0.39 | 89 | 993.0 |
| 20260508224502 | 50 | 301 | 0.0 | 2.6 | 0.00 | 0.49 | 0.39 | 89 | 993.0 |
| 20260508223002 | 50 | 223 | 0.0 | 3.5 | 0.00 | 0.49 | 0.39 | 85 | 993.0 |
| 20260508221557 | 47 | 150 | 1.7 | 5.2 | 0.00 | 0.49 | 0.39 | 94 | 992.8 |
| 20260508220058 | 46 | 311 | 0.0 | 0.0 | 0.00 | 0.49 | 0.39 | 95 | 992.8 |
| 20260508214605 | 44 | 323 | 0.0 | 0.9 | 0.00 | 0.49 | 0.39 | 96 | 992.9 |
| 20260508213055 | 43 | 304 | 0.0 | 0.0 | 0.00 | 0.49 | 0.39 | 96 | 993.2 |
| 20260508211554 | 42 | 145 | 0.0 | 1.7 | 0.00 | 0.49 | 0.39 | 96 | 993.9 |
| 20260508210054 | 42 | 81 | 0.0 | 3.5 | 0.00 | 0.49 | 0.39 | 96 | 994.2 |
| 20260508204553 | 41 | 176 | 0.0 | 2.6 | 0.00 | 0.49 | 0.39 | 96 | 994.2 |
| 20260508203051 | 42 | 26 | 0.0 | 0.0 | 0.00 | 0.49 | 0.39 | 96 | 994.4 |
| 20260508201547 | 42 | 346 | 0.0 | 1.7 | 0.00 | 0.49 | 0.39 | 96 | 993.9 |
| 20260508200053 | 42 | 59 | 0.0 | 4.3 | 0.00 | 0.49 | 0.39 | 96 | 993.7 |
| 20260508194541 | 45 | 317 | 0.0 | 2.6 | 0.00 | 0.49 | 0.39 | 97 | 993.1 |
| 20260508193040 | 45 | 319 | 0.0 | 0.0 | 0.00 | 0.49 | 0.39 | 97 | 992.4 |
| 20260508191538 | 45 | 312 | 0.0 | 0.0 | 0.00 | 0.49 | 0.39 | 96 | 992.2 |
| 20260508190042 | 45 | 312 | 0.0 | 7.0 | 0.00 | 0.49 | 0.39 | 96 | 992.3 |
| 20260508184538 | 45 | 105 | 0.0 | 3.5 | 0.01 | 0.49 | 0.39 | 96 | 992.3 |
| 20260508183035 | 45 | 67 | 0.0 | 0.0 | 0.02 | 0.49 | 0.39 | 96 | 992.3 |
| 20260508181532 | 45 | 102 | 0.0 | 3.5 | 0.02 | 0.49 | 0.39 | 96 | 991.9 |
| 20260508180031 | 45 | 96 | 1.7 | 5.2 | 0.03 | 0.49 | 0.39 | 97 | 992.1 |
| 20260508174536 | 45 | 134 | 1.7 | 7.8 | 0.03 | 0.48 | 0.38 | 97 | 991.8 |
| 20260508173026 | 45 | 113 | 0.9 | 4.3 | 0.02 | 0.46 | 0.36 | 97 | 991.3 |
| 20260508171525 | 45 | 105 | 0.0 | 5.2 | 0.02 | 0.46 | 0.36 | 97 | 991.1 |
| 20260508170024 | 45 | 146 | 0.9 | 4.3 | 0.01 | 0.46 | 0.35 | 97 | 990.8 |
| 20260508164527 | 45 | 31 | 0.0 | 5.2 | 0.00 | 0.45 | 0.35 | 97 | 990.8 |
| 20260508163017 | 45 | 131 | 0.9 | 4.3 | 0.01 | 0.45 | 0.35 | 97 | 990.3 |
| 20260508161519 | 45 | 102 | 0.9 | 3.5 | 0.01 | 0.45 | 0.35 | 97 | 989.9 |
| 20260508160020 | 45 | 150 | 0.9 | 5.2 | 0.01 | 0.45 | 0.35 | 97 | 989.9 |
| 20260508154512 | 45 | 110 | 0.9 | 7.0 | 0.02 | 0.45 | 0.35 | 97 | 989.8 |
| 20260508153009 | 46 | 98 | 0.0 | 5.2 | 0.02 | 0.44 | 0.34 | 97 | 989.8 |
| 20260508151506 | 46 | 142 | 0.0 | 2.6 | 0.04 | 0.44 | 0.34 | 97 | 989.4 |
| 20260508150005 | 46 | 124 | 0.0 | 2.6 | 0.04 | 0.43 | 0.33 | 97 | 989.3 |
| 20260508144502 | 46 | 104 | 0.0 | 2.6 | 0.05 | 0.43 | 0.32 | 97 | 989.1 |
| 20260508143001 | 46 | 66 | 0.0 | 1.7 | 0.07 | 0.42 | 0.31 | 97 | 989.0 |
| 20260508141601 | 46 | 1 | 0.0 | 2.6 | 0.14 | 0.41 | 0.31 | 97 | 988.9 |